Regional Weather Roundup
Issued by NWS Albany, NY

Current Version | Previous Version | Text Only | Print | Product List | Glossary On
Versions: 1 2 3 4 5 6 7 8 9 10 11 12 13 14 15 16 17 18 19 20 21 22 23 24 25 26 27 28 29 30 31 32 33 34 35 36 37 38 39 40 41 42 43 44 45 46 47 48 49 50
000
ASUS41 KALY 041510
RWRALY

NEW YORK STATE HOURLY WEATHER ROUNDUP
NATIONAL WEATHER SERVICE ALBANY NY
1100 AM EDT SAT JUL 04 2015

NOTE: "FAIR" INDICATES FEW OR NO CLOUDS BELOW 12,000 FEET WITH NO
SIGNIFICANT WEATHER AND/OR NO OBSTRUCTIONS TO VISIBILITY.

NYZ032-033-038>043-046>054-057>066-NYZ062>081-041600-
EAST


CITY           SKY/WX    TMP DP  RH WIND       PRES   REMARKS
ALBANY         LGT RAIN  63  59  87 S3        29.99R FOG
GLENS FALLS    LGT RAIN  65  57  75 S3        29.98R
POUGHKEEPSIE   CLOUDY    67  62  84 SW3       29.99R
NEWBURGH       CLOUDY    63  63 100 NW8       30.01S FOG
MONTGOMERY     LGT RAIN  63  60  90 NW8       29.99S
WHITE PLAINS   CLOUDY    70  60  70 NE3       29.97R
ISLIP          CLOUDY    73  52  47 E8        29.93S
NEW YORK CITY  CLOUDY    70  59  68 NE13      29.95R
CENTRAL PARK   CLOUDY    72  58  61 VRB5      29.99R
$$

NYZ005>009-017-018-044>046-055-056-041600-
CENTRAL


CITY           SKY/WX    TMP DP  RH WIND       PRES   REMARKS
FULTON         PTSUNNY   72  62  71 S10G18    29.94R
SYRACUSE       CLOUDY    66  63  90 E5        29.95R
ROME           CLOUDY    66  59  78 SE6       29.98R
ELMIRA         CLOUDY    72  52  49 CALM      30.02R
BINGHAMTON     LGT RAIN  61  60  97 S13       29.98F FOG
MONTICELLO     CLOUDY    61  59  94 W3        30.04S
$$

NYZ026>034-041>043-041600-
NORTH


CITY           SKY/WX    TMP DP  RH WIND       PRES   REMARKS
WATERTOWN      CLOUDY    69  61  75 W3        29.93S
FORT DRUM      NOT AVBL
MASSENA        PTSUNNY   71  55  56 CALM      29.94F
SARANAC LAKE   CLOUDY    65  54  67 CALM      29.96S
PLATTSBURGH    CLOUDY    66  58  75 SE6       29.94F
$$

NYZ001>004-010>016-019>021-041600-
WEST


CITY           SKY/WX    TMP DP  RH WIND       PRES   REMARKS
NIAGARA FALLS  MOSUNNY   69  49  48 NE8       29.94S
BUFFALO        MOSUNNY   72  51  47 N8        29.94S
DUNKIRK        SUNNY     66  57  72 N7        29.95S
JAMESTOWN      CLOUDY    68  61  77 W5        29.97S
WELLSVILLE     MOSUNNY   67  59  75 VRB3      29.99S
ROCHESTER      CLOUDY    71  60  68 SW5       29.93S
PENN YAN       PTSUNNY   71  60  68 S14       29.95S
$$

             KEY
       WCI = WIND CHILL INDEX
       VSB = VISIBILITY
       HX  = HEAT INDEX
$$



USA.gov is the U.S. government's official web portal to all federal, state and local government web resources and services.